Home   Weather   Olsztyn   Past weeks

Flag for Poland Past Weather in Olsztyn, Poland — Yesterday and Last 2 Weeks

Now
31 °F

Fog.


Feels Like: 28 °F
Forecast: 24 / 31 °F
Wind: 3 mph from Southwest

Location: Ketrzyn

Current Time: Jan 22, 2017 at 3:00:23 am

Latest Report: Jan 22, 2017 at 2:00 am


Visibility: 1 mi

Pressure: 30.52 "Hg

Humidity: 99%

Dew Point: 31 °F

Location of OlsztynLocation

Past Weather in Olsztyn — Graph

°F

Olsztyn Temperature Yesterday

Maximum temperature yesterday: 36 °F (at 11:00 am)
Minimum temperature yesterday: 33 °F (at 11:00 pm)
Average temperature yesterday: 35 °F

High & Low Weather Summary for the Past Weeks

 TemperatureHumidityPressure
High36 °F (Jan 12, 2:00 pm)100% (Jan 21, 3:00 am)30.71 "Hg (Jan 21, 3:00 am)
Low-1 °F (Jan 7, 5:00 am)59% (Jan 11, 9:00 pm)29.23 "Hg (Jan 13, 3:00 pm)
Average25 °F88%30.14 "Hg
* Reported Jan 7 1:00 am — Jan 22 1:00 am, Olsztyn, Weather by CustomWeather, © 2017

Note: Actual official high and low records may vary slightly from our data, if they occured in-between our weather recording intervals... More about our weather records

Advertising

Olsztyn Weather History for the Previous 24 Hours

Scroll right to see more
 ConditionsComfort  
Time TempWeatherWind HumidityBarometerVisibility
1:00 am
Sun, Jan 22
32 °FFog.2 mph100%30.52 "Hg1 mi
12:00 am32 °FFog.2 mph99%30.51 "Hg1 mi
11:00 pm
Sat, Jan 21
33 °FFog.2 mph100%30.52 "Hg1 mi
10:00 pm33 °FFog.2 mph99%30.51 "Hg3 mi
9:00 pm33 °FChilly.2 mph99%30.50 "Hg2 mi
8:00 pm34 °FDuststorm.1 mph99%30.48 "Hg1 mi
7:00 pm34 °FFog.1 mph99%30.47 "Hg1 mi
6:00 pm34 °FChilly.2 mph99%30.46 "Hg1 mi
5:00 pm34 °FChilly.2 mph99%30.46 "Hg1 mi
4:00 pm34 °FDuststorm.3 mph100%30.44 "Hg1 mi
3:00 pm35 °FDuststorm.2 mph99%30.43 "Hg0 mi
2:00 pm35 °FDuststorm.3 mph99%30.42 "Hg1 mi
1:00 pm36 °FDuststorm.3 mph99%30.42 "Hg0 mi
12:00 pm35 °FDuststorm.3 mph100%30.42 "Hg0 mi
11:00 am36 °FDuststorm.3 mph99%30.41 "Hg1 mi
10:00 am35 °FDuststorm.3 mph99%30.40 "Hg0 mi
9:00 am35 °FDuststorm.3 mph100%30.38 "Hg1 mi
8:00 am35 °FChilly.3 mph100%30.36 "Hg1 mi
7:00 am35 °FDuststorm.3 mph99%30.35 "Hg1 mi
6:00 am35 °FChilly.5 mph99%30.32 "Hg1 mi
5:00 am35 °FDuststorm.5 mph99%30.32 "Hg0 mi
4:00 am35 °FDuststorm.5 mph99%30.31 "Hg0 mi
3:00 am35 °FDuststorm.3 mph100%30.32 "Hg0 mi
Weather by CustomWeather, © 2017

See weather overviewHow to use our weather pages